SIILIN Weather Reports


Display with metric or nautical units.
time (UTC)temp
F
wind
direction
speed
MPH
gust
MPH
rain 1hr
in
rain 24hr
in
rain mn
in
humidity
%
barometer
mb
20260508084731 48 81 5.0 6.0 0.00 0.00 0.00 57 1026.7
20260508082731 47 93 4.0 5.0 0.00 0.00 0.00 58 1026.7
20260508080732 46 100 3.0 4.0 0.00 0.00 0.00 56 1026.6
20260508074731 45 39 4.0 4.0 0.00 0.00 0.00 55 1026.5
20260508072731 45 85 5.0 5.0 0.00 0.00 0.00 64 1026.4
20260508070731 43 27 6.0 8.0 0.00 0.00 0.00 66 1026.2
20260508064731 43 15 7.0 9.0 0.00 0.00 0.00 64 1026.0
20260508062730 42 10 7.0 10.0 0.00 0.00 0.00 66 1025.8
20260508060731 42 25 6.0 7.0 0.00 0.00 0.00 69 1025.7
20260508054731 41 5 8.0 10.0 0.00 0.00 0.00 68 1025.5
20260508052731 41 356 8.0 10.0 0.00 0.00 0.00 65 1025.2
20260508050731 40 351 7.0 9.0 0.00 0.00 0.00 61 1025.1
20260508044732 40 338 7.0 9.0 0.00 0.00 0.00 66 1024.9
20260508042730 40 332 6.0 8.0 0.00 0.00 0.00 67 1024.8
20260508040730 40 318 4.0 5.0 0.00 0.00 0.00 65 1024.5
20260508034730 39 311 3.0 6.0 0.00 0.00 0.00 64 1024.4
20260508032731 38 305 3.0 5.0 0.00 0.00 0.00 67 1024.2
20260508030731 38 290 2.0 4.0 0.00 0.00 0.00 69 1024.1
20260508024730 38 261 5.0 6.0 0.00 0.00 0.00 67 1023.8
20260508022729 38 315 3.0 5.0 0.00 0.00 0.00 68 1023.5
20260508020730 38 301 6.0 8.0 0.00 0.00 0.00 66 1023.4
20260508014730 38 314 4.0 6.0 0.00 0.00 0.00 69 1023.2
20260508012730 38 326 5.0 6.0 0.00 0.00 0.00 65 1023.0
20260508010730 38 315 6.0 8.0 0.00 0.00 0.00 63 1022.7
20260508004730 39 317 4.0 6.0 0.00 0.00 0.00 61 1022.6
20260508002730 40 318 5.0 7.0 0.00 0.00 0.00 62 1022.4
20260508000731 40 326 7.0 9.0 0.00 0.00 0.00 65 1022.2
20260507234730 40 332 8.0 9.0 0.00 0.00 0.00 63 1022.1
20260507232730 40 312 8.0 10.0 0.00 0.00 0.00 60 1021.8
20260507230730 41 307 9.0 10.0 0.00 0.00 0.00 57 1021.6
20260507224729 41 309 8.0 11.0 0.00 0.00 0.00 55 1021.4
20260507222730 41 312 5.0 7.0 0.00 0.00 0.00 52 1021.2
20260507220729 42 320 7.0 9.0 0.00 0.00 0.00 52 1021.0
20260507214729 42 318 9.0 11.0 0.00 0.00 0.00 52 1020.7
20260507212729 42 317 11.0 13.0 0.00 0.00 0.00 51 1020.3
20260507210729 43 316 11.0 13.0 0.00 0.00 0.00 53 1020.0
20260507204730 44 311 11.0 15.0 0.00 0.00 0.00 48 1019.8
20260507202729 44 301 11.0 14.0 0.00 0.00 0.00 43 1019.4
20260507200730 45 300 11.0 15.0 0.00 0.00 0.00 43 1019.0
20260507194729 46 299 10.0 13.0 0.00 0.00 0.00 40 1018.7
20260507192729 46 300 11.0 14.0 0.00 0.00 0.00 38 1018.5
20260507190728 47 302 12.0 16.0 0.00 0.00 0.00 39 1018.2
20260507184729 47 300 11.0 13.0 0.00 0.00 0.00 44 1018.0
20260507182728 48 295 11.0 14.0 0.00 0.00 0.00 43 1017.8
20260507180728 48 300 14.0 18.0 0.00 0.00 0.00 41 1017.6
20260507174728 49 303 13.0 18.0 0.00 0.00 0.00 41 1017.4
20260507172728 49 309 13.0 18.0 0.00 0.00 0.00 42 1017.2
20260507170728 50 302 14.0 19.0 0.00 0.00 0.00 35 1017.0
20260507164728 50 279 14.0 21.0 0.00 0.00 0.00 32 1016.9
20260507162728 50 271 14.0 20.0 0.00 0.00 0.00 36 1016.7
20260507160728 50 286 16.0 21.0 0.00 0.00 0.00 32 1016.5
20260507154728 51 282 14.0 19.0 0.00 0.00 0.00 36 1016.3
20260507152727 51 288 15.0 20.0 0.00 0.00 0.00 29 1016.3
20260507150729 51 296 14.0 19.0 0.00 0.00 0.00 32 1016.4
20260507144728 51 295 15.0 20.0 0.00 0.00 0.00 30 1016.2
20260507142729 51 315 14.0 21.0 0.00 0.00 0.00 29 1016.1
20260507140727 51 304 14.0 19.0 0.00 0.00 0.00 33 1016.0
20260507134728 50 353 5.0 8.0 0.00 0.00 0.00 32 1015.9
20260507132727 51 344 5.0 7.0 0.00 0.00 0.00 24 1015.8
20260507130728 51 36 6.0 9.0 0.00 0.00 0.00 35 1015.8
20260507124727 51 92 5.0 10.0 0.00 0.00 0.00 36 1015.8
20260507122727 52 32 7.0 10.0 0.00 0.00 0.00 26 1015.8
20260507120728 50 5 5.0 10.0 0.00 0.00 0.00 25 1015.8
20260507114728 51 205 4.0 7.0 0.00 0.00 0.00 20 1015.8
20260507112726 50 219 2.0 5.0 0.00 0.00 0.00 26 1015.9
20260507110726 50 213 2.0 8.0 0.00 0.00 0.00 17 1016.0
20260507104726 51 105 4.0 4.0 0.00 0.00 0.00 26 1016.0
20260507102727 49 162 3.0 5.0 0.00 0.00 0.00 29 1016.0
20260507100726 49 234 2.0 3.0 0.00 0.00 0.00 22 1016.1
20260507094727 46 341 4.0 5.0 0.00 0.00 0.00 37 1016.2
20260507092726 45 342 4.0 5.0 0.00 0.00 0.00 42 1016.2
20260507090727 45 357 4.0 5.0 0.00 0.00 0.00 50 1016.4